AirNav   Air Wisconsin pilot careers
 
 986 users online  

2JY6 The Ridge at Backbrook Heliport
Ringoes, New Jersey, USA


FAA INFORMATION EFFECTIVE 12 OCTOBER 2017

Location

FAA Identifier: 2JY6
Lat/Long: 40-26-43.0000N / 074-49-29.0000W
40-26.716667N / 074-49.483333W
40.4452778 / -74.8247222
(estimated)
Elevation: 304 ft. / 93 m (estimated)
From city: 2 miles N of RINGOES, NJ
Time zone: UTC -4 (UTC -5 during Standard Time)
Zip code: 08551

Heliport Operations

Heliport use: Private use. Permission required prior to landing
Activation date: 12/2006
Control tower: no
ARTCC: NEW YORK CENTER
FSS: MILLVILLE FLIGHT SERVICE STATION
Attendance: UNATNDD
Wind indicator: yes
Segmented circle: no

Heliport Communications

WX ASOS at TTN (10 nm S): 126.77 (609-538-8690)
WX ASOS at SMQ (13 nm NE): 120.6 (908-722-2139)
WX ASOS at DYL (15 nm SW): 118.875 (215-345-0392)

Nearby radio navigation aids

VOR radial/distance  VOR name  Freq  Var
SBJr215/9.1SOLBERG VOR/DME112.9010W
ARDr028/12.1YARDLEY VOR/DME108.2010W
RBVr324/21.0ROBBINSVILLE VORTAC113.8010W
BWZr191/21.2BROADWAY VOR/DME114.2011W
PNEr031/(23.4)NORTH PHILADELPHIA VOR112.0010W
GXUr350/28.2MC GUIRE VORTAC110.6012W
COLr296/31.4COLTS NECK VOR/DME115.4011W
STWr188/33.1STILLWATER VOR/DME109.6011W
FJCr130/33.3ALLENTOWN VORTAC117.5010W
PTWr077/36.2POTTSTOWN VORTAC116.5009W
SAXr210/39.5SPARTA VORTAC115.7011W

 
NDB name  Hdg/Dist  Freq  Var  ID
CHATHAM238/25.325413WCAT -.-. .- -
AMBLER060/28.527512WING .. -. --.
LAKEHURST328/32.939611WNEL -. . .-..

Heliport Services

Runway Information

Helipad H1

Dimensions: 40 x 40 ft. / 12 x 12 m
Surface: turf, in good condition
Operational restrictions: APPROACH/DEPARTURE PATH 135 DEGREES & 270 DEGREES.
Traffic pattern: leftleft

Heliport Ownership and Management from official FAA records

Ownership: Privately-owned
Owner: THE RIDGE AT BACKBROOK L.L.C.
211 WERTSVILLE RD.
RINGOES, NJ 08551
Phone 609-466-7702
Manager: PAMELA MOORE
211 WERTSVILLE RD.
RINGOES, NJ 08551
Phone 609-466-7702

Additional Remarks

A52-H1 131 FT TREES 300 FT EAST; 100 FT BLDG 156 FT NORTH; 138 FT BERM 138 FT WEST OF HELIPAD.

Instrument Procedures

There are no published instrument procedures at 2JY6.

Some nearby airports with instrument procedures:

39N - Princeton Airport (8 nm E)
N51 - Solberg-Hunterdon Airport (9 nm NE)
N40 - Sky Manor Airport (10 nm NW)
KTTN - Trenton Mercer Airport (10 nm S)
47N - Central Jersey Regional Airport (11 nm NE)
N85 - Alexandria Airport (12 nm NW)
KSMQ - Somerset Airport (13 nm NE)
KDYL - Doylestown Airport (15 nm SW)
N87 - Trenton-Robbinsville Airport (17 nm SE)
 
Loc | Ops | Rwys | IFR | FBO | Links
Com | Nav | Svcs | Stats | Notes


 
Area around 2JY6 (The Ridge at Backbrook Heliport)
 
Road maps at: MapQuest Bing Google
 
Aerial photo
No photo
 
Sectional chart

 
Airport distance calculator
Flying to The Ridge at Backbrook Heliport? Find the distance to fly.

From to 2JY6

Sunrise and sunset
Times for 22-Oct-2017
 Local
(UTC-4)
 Zulu
(UTC)
Morning civil twilight06:5110:51
Sunrise07:1911:19
Sunset18:0922:09
Evening civil twilight18:3722:37

Current date and time
Zulu (UTC)  22-Oct-2017 15:17:52
Local (UTC-4)  22-Oct-2017 11:17:52
 
METAR
KTTN 
10nm S 
ASOS 133.70 609-538-8690
221453Z 00000KT 10SM CLR 19/11 A3041 RMK AO2 SLP291 T01890111 50002
KSMQ 
13nm NE 
ASOS 120.60 908-722-2139
221453Z AUTO 00000KT 10SM CLR 18/10 A3039 RMK AO2 SLP293 T01780100 58000
KDYL 
15nm SW 
221454Z AUTO VRB03KT 10SM CLR 19/08 A3040 RMK AO2 SLP295 T01940083 50001
TAF
KTTN 
10nm S 
221127Z 2212/2312 VRB02KT P6SM SCT250 FM221800 16005KT P6SM BKN250 FM230600 VRB03KT 2SM BR SCT010 BKN250 FM231100 VRB03KT 4SM BR BKN010
NOTAMs
Click for the latest NOTAMs
NOTAMs are issued by the DoD/FAA and will open in a separate window not controlled by AirNav.

 

 
 

Would you like to see your business listed on this page?

 If your business provides an interesting product or service to pilots, flight crews, aircraft, or users of the The Ridge at Backbrook Heliport, you should consider listing it here.  To start the listing process, click on the button below
 
Add a business
 

Other Pages about The Ridge at Backbrook Heliport

Update a link
 
Copyright © AirNav, LLC. All rights reserved. Privacy Policy  Contact